Location: Endfield
(51.6667°N, 0.0667°W)
Time: 06:22:45
(UTC+00:00)

IRS-1A Rocket - Pass Details

Date: 19 May 2024
Orbit: 851 x 931 km, 99.0° (Epoch: 19 June)

Event Time Altitude Azimuth Distance (km) Brightness Sun altitude
Exits shadow 20:25:20 - 154° (SSE) 3,183 6.6 -4.8°
Reaches altitude 10° 20:26:58 10° 153° (SSE) 2,543 6.1 -5.0°
Maximum altitude 20:32:36 71° 70° (ENE) 922 4.4 -5.6°
Drops below altitude 10° 20:38:09 10° 348° (NNW) 2,513 7.7 -6.2°
Sets 20:40:31 0° 346° (NNW) 3,447 8.5 -6.5°
